Regional Weather Roundup
Issued by NWS San Angelo, TX

Home | Current Version | Previous Version | Text Only | Print | Product List | Glossary On
Versions: 1 2 3 4 5 6 7 8 9 10 11 12 13 14 15 16 17 18 19 20 21 22 23 24 25 26 27 28 29 30 31 32 33 34 35 36 37 38 39 40 41 42 43 44 45 46 47 48 49 50
000
ASUS44 KSJT 070110
RWRSJT
WEST CENTRAL TEXAS REGIONAL WEATHER ROUNDUP
NATIONAL WEATHER SERVICE SAN ANGELO TX
800 PM CDT MON JUL 06 2015

NOTE: "FAIR" INDICATES FEW OR NO CLOUDS BELOW 12,000 FEET WITH NO
SIGNIFICANT WEATHER AND/OR OBSTRUCTIONS TO VISIBILITY.

TXZ049-054-064>066-071>073-076>078-098-099-113-114-127-128-139-140-
154-155-168>170-070200
...LOCATIONS ACROSS WEST CENTRAL TEXAS...

CITY           SKY/WX    TMP DP  RH WIND       PRES   REMARKS
SAN ANGELO     PTCLDY    90  65  43 S10       29.89R
ABILENE        PTCLDY    90  61  37 S16G22    29.88R
DYESS AFB      PTCLDY    89  66  46 S16G23    29.86R
JUNCTION       CLEAR     87  65  47 S13       29.93R
SWEETWATER     MOCLDY    88  65  46 S15       29.92S
BROWNWOOD      CLEAR     88  63  42 S20       29.91R
COLEMAN        CLEAR     88  65  47 S16G24    29.90R
SONORA         PTCLDY    86  66  51 S13G20    29.98R
OZONA          FAIR      86  63  45 S14G23    29.96S
BRADY          CLEAR     86  63  45 NE12      29.93R
$$

TEXAS PANHANDLE/OKLAHOMA PANHANDLE

CITY           SKY/WX    TMP DP  RH WIND       PRES   REMARKS
AMARILLO       HVY RAIN  66  64  93 N20G29    30.06S FOG
BORGER         LGT RAIN  76  66  71 N10       30.04R
CANADIAN       CLOUDY    76  70  81 N13G21    29.97R
DALHART        LGT RAIN  72  60  66 N21       30.10R
DUMAS          LGT RAIN  71  61  71 N14       30.08R
GUYMON         NOT AVBL
HEREFORD       CLOUDY    69  69  98 MISG      30.04S
PAMPA          CLOUDY    70  64  80 W9        30.04F
PERRYTON       CLOUDY    73  63  69 N20G28    30.04R
$$

SOUTHERN PANHANDLE/SOUTH PLAINS/ROLLING PLAINS

CITY           SKY/WX    TMP DP  RH WIND       PRES   REMARKS
LUBBOCK        PTSUNNY   71  68  90 E9        29.96R
SNYDER         MOCLDY    75  71  85 SW14      29.96R
CHILDRESS      CLOUDY    87  69  54 S6        29.85R
SEMINOLE       MOCLDY    85  62  45 S18G24    29.94R
$$

PERMIAN BASIN

CITY           SKY/WX    TMP DP  RH WIND       PRES   REMARKS
MIDLAND        CLOUDY    85  69  58 S17       29.91R
ODESSA         CLOUDY    84  67  56 S20G33    29.93R
WINK           SUNNY     87  62  43 S22G32    29.87R
$$

FAR WEST/SOUTHWEST MOUNTAINS/TRANS PECOS

CITY           SKY/WX    TMP DP  RH WIND       PRES   REMARKS
ALPINE         CLOUDY    73  63  70 S14       30.09F
DRYDEN           N/A     79  67  66 SW9       29.91F
EL PASO        MOSUNNY   96  52  22 W10       29.91F
FORT STOCKTON  CLOUDY    78  65  63 S17G25    29.91F
GUADALUPE PASS SUNNY     88  54  31 W16G22    30.06S
MARFA          CLOUDY   N/A N/A N/A SE12      30.08S
PECOS          MOCLDY    89  60  38 SE22G28   29.84S
$$

DALLAS/FORT WORTH METROPLEX

CITY           SKY/WX    TMP DP  RH WIND       PRES   REMARKS
DFW AIRPORT    PTCLDY    89  65  44 S18G29    29.85F
FTW MEACHAM    CLEAR     89  67  47 S16G30    29.85F
DAL-EXECUTIVE  PTCLDY    87  69  54 S16G30    29.86F
GRAND PRAIRIE  CLEAR     88  70  55 S15G22    29.87F
ADDISON        MOCLDY    90  64  43 S13G23    29.87
MESQUITE       CLEAR     88  66  48 S16         N/A
LANCASTER      PTCLDY    86  67  53 S13       29.88F
$$

NORTH CENTRAL TEXAS

CITY           SKY/WX    TMP DP  RH WIND       PRES   REMARKS
SHRMAN/DENISON CLEAR     87  69  55 S10G21    29.90R
GAINESVILLE    CLEAR     86  66  51 S16G24    29.90R
BRIDGEPORT     CLEAR     88  68  52 S9G17     29.87R
DENTON         CLEAR     88  66  48 S21G33    29.85F
WAXAHACHIE     CLEAR     85  71  61 S16G22    29.89F
GRANBURY         N/A     90  66  45 SE15G24   29.87S
$$

WESTERN NORTH TEXAS

CITY           SKY/WX    TMP DP  RH WIND       PRES   REMARKS
WICHITA FALLS  PTCLDY    88  66  48 S13       29.83R
VERNON         CLOUDY    91  63  39 S14       29.83R
BRECKENRIDGE   CLEAR     91  59  33 S15G22    29.86R
COMANCHE       CLEAR     86  65  48 S17G25    29.90R
$$

CENTRAL AND SOUTH CENTRAL TEXAS

CITY           SKY/WX    TMP DP  RH WIND       PRES   REMARKS
AUSTIN/BERGSTM PTCLDY    84  71  65 S12       29.92F
WACO           PTCLDY    87  70  56 S17       29.88F
HILLSBORO      CLEAR     85  68  55 S18G28    29.88F
TEMPLE         CLEAR     84  70  61 S17G29    29.90S
KILLEEN-GRAY   CLEAR     84  71  63 S22       29.90F
FORT HOOD      PTCLDY    85  70  59 S18       29.89F
GEORGETOWN     PTCLDY    86  68  54 S13G22    29.91F
LAGO VISTA     FAIR      84  69  61 S13G21    29.95S
SAN MARCOS     CLEAR     84  70  61 S15       29.94S
NEW BRAUNFELS  PTCLDY    85  72  65 S16       29.93F
RANDOLPH AFB   PTCLDY    84  71  64 S15       29.94F
SAN ANTONIO    PTCLDY    85  71  63 SE20G30   29.94S
STINSON        PTCLDY    85  72  65 SE17G25   29.92R
PLEASANTON     NOT AVBL
LA GRANGE      CLEAR     85  75  74 S12       29.92F
GIDDINGS       PTCLDY    83  72  68 S13G18    29.98S
$$

EAST TEXAS

CITY           SKY/WX    TMP DP  RH WIND       PRES   REMARKS
PARIS          PTCLDY    84  72  65 S6        29.92R
CLARKSVILLE    NOT AVBL
TYLER          PTCLDY    86  71  60 S14       29.91F
LONGVIEW       PTCLDY    86  70  58 S12       29.92F
PALESTINE      CLEAR     86  71  60 S9G16     29.93S
NACOGDOCHES    CLEAR    N/A N/A N/A S8        29.95S
$$

TEXAS HILL COUNTRY AND EDWARDS PLATEAU

CITY           SKY/WX    TMP DP  RH WIND       PRES   REMARKS
LLANO          CLEAR     88  66  48 S13G22    29.94S
HORSESHOE BAY  FAIR      86  68  54 S8G17     29.92F
KERRVILLE      CLEAR     83  70  66 SE15G21   29.96R
FREDERICKSBRG  CLEAR     82  66  56 S9G16     29.96S
ROCKSPRINGS    PTCLDY    82  66  57 SE16G22   29.99S
HONDO          MOCLDY    86  72  62 SE15      29.95R
UVALDE         CLEAR     87  70  56 SE10G20   29.91S
DEL RIO        PTCLDY    91  67  44 SE9       29.87R
$$

SOUTHEAST TEXAS

CITY           SKY/WX    TMP DP  RH WIND       PRES   REMARKS
COLLEGE STN    CLEAR     86  73  65 S18       29.93F
CALDWELL       CLEAR     84  73  70 S14G22    29.95F
CROCKETT       CLEAR     86  77  74 S7        29.97S
BRENHAM        CLEAR     86  73  65 S10       29.95F
HUNTSVILLE     CLEAR     87  71  58 S9        29.95F
CONROE         MOCLDY    86  71  60 S13       29.96F
HOUSTON BUSH   MOCLDY    86  74  67 S15G22    29.97F
HOUSTON HOBBY  MOCLDY    84  75  74 S12G18    29.97F
PERLAND        PTCLDY    86  75  69 S10       29.99F
WHARTON        PTCLDY    83  74  75 S9        29.98S
$$

THE UPPER TEXAS COAST

CITY           SKY/WX    TMP DP  RH WIND       PRES   REMARKS
ORANGE         CLEAR     84  71  63 S8        30.01F
PORT ARTHUR    PTCLDY    84  75  74 S9        29.99F
GALVESTON      MOCLDY    85  78  80 S14       30.00F
ANGLETON       LGT RAIN  85  77  77 S13       29.98F
BAY CITY       MOCLDY    85  78  78 S8        29.98S
$$

TEXAS COASTAL BEND, RIO GRANDE PLAINS DEEP SOUTH TEXAS

CITY           SKY/WX    TMP DP  RH WIND       PRES   REMARKS
VICTORIA       CLEAR     84  76  76 S17       29.95F
BEEVILLE       FAIR      83  78  87 SE13G21   29.94S
ROCKPORT       LGT RAIN  84  77  79 SE12G23   29.94F
PORT ARANSAS   CLOUDY    83  79  88 SE13      29.94F
PORT LAVACA    PTCLDY    82  77  83 SE14      29.96F
CORPUS CHRISTI MOCLDY    84  76  76 S20G26    29.94S
KINGSVILLE NAS MOCLDY    85  79  82 SE21      29.93S
COTULLA        LGT RAIN  91  70  49 S18G26    29.90R
LAREDO         CLEAR     92  70  48 SE21      29.89R
BROWNSVILLE    MOCLDY    85  78  80 SE14      29.95R
PORT ISABEL    MOCLDY    84  78  82 SE21      29.94S HAZE
HEBBRONVILLE     N/A     87  70  57 SE12G21   29.92S
MCALLEN        CLEAR     89  74  60 SE24G31   29.92R
WESLACO        PTCLDY    86  74  66 SE18G25   29.92R
FALFURRIAS     PTCLDY    87  73  64 SE14      29.91S
EDINBURG       CLEAR     88  73  61 S14G20    29.93R
$$


USA.gov is the U.S. government's official web portal to all federal, state and local government web resources and services.